Location: Glendale
(37.4556°N, 88.6714°W)
Time: 06:47:00
(UTC+00:00)

Centaur D AC-28 - Pass Details

Date: 08 December 2019
Orbit: 608 x 36447 km, 28.6° (Epoch: 25 January)

Event Time Altitude Azimuth Distance (km) Brightness Sun altitude
Exits shadow 10:22:23 30° 211° (SSW) 2,286 4.2 -29.8°
Maximum altitude 10:24:34 34° 181° (S) 2,628 4.7 -29.4°
Drops below altitude 10° 10:46:55 10° 125° (SE) 10,744 8.7 -25.0°
Sets 11:17:53 0° 121° (ESE) 19,395 10.5 -19.0°
